Total_Precipitation_Accumulation
0.00 0.00 0.00 0.03 0.14 0.22 0.29 0.14 0.04 0.02 0.02 0.01 0.01 0.02 0.05 0.06 0.09 0.08 0.01 0.00 0.00 0.00 0.00 0.01 0.00 0.00 0.00 0.01 0.02 0.05 0.06 0.08 0.08 0.08 0.08 0.07 0.05 0.02 0.01 0.00 0.00 0.00 0.01 0.01 0.01 0.01 0.01 0.01 0.01
0.00 0.00 0.00 0.02 0.10 0.25 0.30 0.15 0.04 0.02 0.02 0.02 0.02 0.01 0.01 0.01 0.01 0.00 0.00 0.00 0.00 0.00 0.00 0.00 0.01 0.00 0.00 0.01 0.02 0.03 0.04 0.05 0.06 0.06 0.06 0.05 0.03 0.01 0.01 0.01 0.01 0.01 0.02 0.02 0.02 0.02 0.02 0.01 0.00
0.00 0.00 0.00 0.01 0.03 0.11 0.14 0.06 0.02 0.02 0.04 0.04 0.04 0.02 0.00 0.00 0.00 0.00 0.00 0.00 0.00 0.00 0.00 0.01 0.01 0.01 0.01 0.01 0.02 0.03 0.04 0.04 0.05 0.05 0.04 0.04 0.02 0.01 0.01 0.01 0.01 0.02 0.04 0.04 0.04 0.04 0.03 0.02 0.01
0.00 0.00 0.00 0.00 0.00 0.01 0.02 0.03 0.04 0.05 0.05 0.05 0.05 0.02 0.00 0.00 0.00 0.00 0.00 0.00 0.00 0.00 0.00 0.01 0.01 0.01 0.01 0.02 0.02 0.02 0.04 0.04 0.05 0.04 0.04 0.04 0.03 0.03 0.02 0.02 0.02 0.04 0.07 0.08 0.08 0.08 0.06 0.03 0.01
0.00 0.00 0.00 0.00 0.00 0.01 0.01 0.04 0.08 0.10 0.08 0.06 0.06 0.04 0.01 0.00 0.00 0.00 0.00 0.00 0.00 0.00 0.00 0.01 0.02 0.02 0.02 0.03 0.04 0.04 0.05 0.05 0.05 0.05 0.05 0.05 0.04 0.04 0.04 0.04 0.04 0.05 0.07 0.08 0.09 0.10 0.08 0.05 0.02
0.00 0.00 0.00 0.00 0.01 0.02 0.03 0.07 0.13 0.13 0.10 0.07 0.14 0.10 0.03 0.01 0.01 0.02 0.01 0.01 0.01 0.00 0.01 0.02 0.03 0.04 0.03 0.04 0.05 0.06 0.06 0.07 0.08 0.08 0.07 0.06 0.06 0.07 0.07 0.07 0.06 0.06 0.07 0.08 0.09 0.10 0.10 0.08 0.05
0.00 0.00 0.00 0.00 0.01 0.03 0.05 0.09 0.14 0.14 0.09 0.12 0.22 0.20 0.10 0.04 0.02 0.03 0.04 0.02 0.01 0.01 0.02 0.04 0.06 0.06 0.06 0.07 0.08 0.08 0.09 0.09 0.10 0.10 0.08 0.07 0.07 0.08 0.09 0.10 0.09 0.09 0.10 0.10 0.10 0.11 0.13 0.13 0.10
0.00 0.00 0.00 0.00 0.01 0.04 0.07 0.09 0.13 0.20 0.22 0.21 0.15 0.23 0.28 0.11 0.05 0.06 0.06 0.04 0.04 0.03 0.03 0.04 0.09 0.12 0.12 0.11 0.11 0.11 0.12 0.12 0.12 0.11 0.10 0.09 0.09 0.11 0.14 0.13 0.12 0.12 0.13 0.16 0.19 0.19 0.21 0.22 0.20
0.00 0.00 0.00 0.00 0.01 0.09 0.11 0.10 0.12 0.13 0.13 0.12 0.13 0.22 0.18 0.08 0.08 0.10 0.10 0.08 0.07 0.06 0.06 0.07 0.10 0.13 0.15 0.17 0.19 0.23 0.24 0.27 0.27 0.28 0.25 0.20 0.20 0.27 0.35 0.28 0.23 0.23 0.29 0.35 0.42 0.44 0.48 0.47 0.36
0.00 0.00 0.00 0.00 0.00 0.04 0.10 0.12 0.15 0.13 0.18 0.22 0.17 0.11 0.07 0.09 0.13 0.13 0.13 0.13 0.12 0.12 0.13 0.14 0.16 0.20 0.22 0.25 0.44 0.54 0.55 0.67 0.60 0.66 0.61 0.57 0.56 0.46 0.34 0.38 0.44 0.53 0.67 0.76 0.84 0.97 1.02 0.92 0.68
0.00 0.00 0.00 0.00 0.00 0.00 0.02 0.07 0.13 0.17 0.33 0.47 0.39 0.16 0.18 0.18 0.24 0.21 0.21 0.21 0.23 0.25 0.22 0.21 0.26 0.28 0.32 0.41 0.62 0.74 0.79 0.87 0.86 0.91 0.98 1.06 1.05 0.86 0.72 0.83 1.01 1.09 1.21 1.22 1.38 1.57 1.31 1.22 1.20
0.00 0.00 0.00 0.00 0.00 0.00 0.01 0.04 0.12 0.11 0.39 0.55 0.37 0.20 0.22 0.22 0.25 0.32 0.33 0.31 0.31 0.36 0.40 0.46 0.51 0.52 0.55 0.67 0.72 0.77 0.73 0.78 0.87 0.99 1.15 1.30 1.27 1.27 1.21 1.23 1.30 1.40 1.51 1.61 1.72 1.74 1.65 1.75 1.71
0.00 0.00 0.00 0.01 0.01 0.01 0.02 0.05 0.10 0.12 0.24 0.35 0.20 0.15 0.19 0.25 0.30 0.37 0.39 0.38 0.48 0.68 0.77 0.79 0.80 0.77 0.70 0.64 0.62 0.61 0.61 0.63 0.74 0.84 0.92 1.04 1.25 1.38 1.37 1.22 1.19 1.22 1.41 1.65 1.89 1.93 2.13 2.18 1.93
0.00 0.00 0.00 0.01 0.00 0.01 0.02 0.04 0.07 0.11 0.17 0.27 0.23 0.18 0.22 0.28 0.36 0.46 0.56 0.73 0.96 1.15 1.18 1.16 1.07 0.91 0.84 0.76 0.66 0.64 0.60 0.64 0.66 0.68 0.78 0.95 1.08 1.23 1.20 1.19 1.23 1.24 1.23 1.34 1.69 1.89 2.06 1.98 1.73
0.00 0.02 0.03 0.02 0.01 0.01 0.02 0.07 0.17 0.14 0.20 0.26 0.25 0.24 0.28 0.36 0.48 0.72 0.99 1.33 1.73 1.96 1.71 1.35 1.15 0.99 0.89 0.88 0.84 0.76 0.68 0.63 0.64 0.62 0.69 0.78 0.85 0.96 1.00 0.99 0.98 1.02 1.03 1.05 1.18 1.34 1.48 1.40 1.27
0.01 0.05 0.13 0.06 0.02 0.02 0.04 0.30 0.46 0.25 0.25 0.29 0.27 0.32 0.40 0.54 0.69 0.98 1.38 1.96 2.48 2.67 2.28 1.68 1.43 1.43 1.30 1.16 0.90 0.70 0.63 0.56 0.50 0.48 0.49 0.53 0.55 0.58 0.60 0.60 0.58 0.61 0.60 0.64 0.73 0.82 0.90 0.96 1.02
0.01 0.04 0.10 0.12 0.06 0.04 0.10 0.46 0.61 0.35 0.36 0.34 0.33 0.42 0.51 0.58 0.67 0.82 1.25 1.84 2.54 3.03 2.87 2.28 2.10 2.12 1.60 0.99 0.68 0.53 0.47 0.38 0.35 0.37 0.35 0.37 0.39 0.40 0.43 0.42 0.41 0.40 0.38 0.38 0.40 0.49 0.59 0.66 0.74
0.01 0.02 0.07 0.16 0.11 0.10 0.17 0.35 0.58 0.57 0.60 0.62 0.54 0.50 0.54 0.56 0.58 0.62 0.77 1.00 1.71 2.15 2.06 1.91 1.90 1.54 1.02 0.60 0.41 0.30 0.27 0.23 0.21 0.25 0.27 0.28 0.31 0.33 0.36 0.34 0.33 0.29 0.27 0.29 0.33 0.38 0.41 0.42 0.46
0.01 0.02 0.06 0.11 0.12 0.17 0.25 0.34 0.53 0.64 0.70 0.70 0.62 0.51 0.39 0.42 0.45 0.46 0.46 0.46 0.71 0.86 0.87 0.98 0.93 0.83 0.52 0.36 0.23 0.16 0.14 0.13 0.13 0.16 0.16 0.19 0.23 0.28 0.34 0.29 0.32 0.29 0.24 0.24 0.26 0.29 0.30 0.28 0.29
0.01 0.03 0.08 0.12 0.11 0.14 0.24 0.40 0.57 0.67 0.62 0.57 0.54 0.43 0.32 0.33 0.35 0.26 0.19 0.29 0.32 0.39 0.45 0.47 0.49 0.41 0.25 0.17 0.15 0.13 0.11 0.08 0.07 0.07 0.09 0.09 0.12 0.17 0.23 0.30 0.25 0.25 0.25 0.25 0.24 0.26 0.25 0.22 0.24
0.03 0.04 0.05 0.09 0.08 0.11 0.26 0.63 0.67 0.60 0.54 0.46 0.45 0.35 0.24 0.20 0.16 0.08 0.05 0.09 0.26 0.45 0.40 0.25 0.25 0.20 0.13 0.10 0.10 0.10 0.10 0.10 0.09 0.08 0.07 0.08 0.07 0.09 0.14 0.21 0.24 0.27 0.24 0.27 0.32 0.30 0.27 0.21 0.19
0.03 0.03 0.01 0.01 0.04 0.23 0.33 0.68 0.74 0.59 0.61 0.47 0.37 0.31 0.14 0.07 0.04 0.03 0.03 0.05 0.14 0.26 0.26 0.21 0.20 0.20 0.12 0.09 0.08 0.07 0.07 0.08 0.08 0.07 0.06 0.07 0.06 0.07 0.08 0.10 0.15 0.22 0.26 0.33 0.26 0.29 0.30 0.25 0.18
0.01 0.01 0.01 0.02 0.05 0.13 0.23 0.56 0.76 0.57 0.64 0.43 0.25 0.15 0.06 0.03 0.01 0.00 0.01 0.01 0.02 0.05 0.11 0.15 0.24 0.28 0.20 0.14 0.10 0.09 0.07 0.06 0.06 0.07 0.07 0.08 0.10 0.11 0.12 0.12 0.11 0.12 0.19 0.26 0.29 0.35 0.32 0.32 0.27
0.00 0.01 0.06 0.12 0.15 0.31 0.32 0.36 0.61 0.46 0.34 0.19 0.11 0.06 0.03 0.02 0.01 0.01 0.00 0.00 0.01 0.04 0.06 0.09 0.18 0.25 0.20 0.16 0.14 0.15 0.15 0.13 0.12 0.11 0.11 0.14 0.17 0.19 0.19 0.20 0.20 0.19 0.17 0.17 0.19 0.24 0.30 0.35 0.36
0.01 0.02 0.13 0.26 0.37 0.45 0.21 0.38 0.69 0.34 0.18 0.09 0.05 0.03 0.02 0.01 0.01 0.01 0.01 0.01 0.01 0.03 0.03 0.04 0.07 0.12 0.12 0.10 0.10 0.15 0.23 0.29 0.30 0.25 0.22 0.20 0.21 0.23 0.23 0.22 0.24 0.27 0.27 0.25 0.20 0.16 0.20 0.28 0.33
0.01 0.01 0.02 0.04 0.08 0.15 0.20 0.74 0.61 0.17 0.09 0.05 0.02 0.01 0.01 0.01 0.01 0.01 0.01 0.01 0.01 0.01 0.01 0.01 0.01 0.02 0.03 0.04 0.05 0.07 0.11 0.18 0.26 0.31 0.30 0.30 0.32 0.27 0.23 0.21 0.22 0.26 0.30 0.31 0.28 0.22 0.20 0.22 0.26
0.01 0.00 0.00 0.01 0.01 0.08 0.22 0.39 0.21 0.05 0.03 0.02 0.01 0.01 0.01 0.00 0.00 0.00 0.00 0.00 0.00 0.00 0.00 0.00 0.00 0.00 0.00 0.00 0.01 0.01 0.02 0.04 0.06 0.10 0.14 0.21 0.31 0.30 0.24 0.20 0.19 0.22 0.25 0.30 0.31 0.30 0.29 0.26 0.24
0.01 0.00 0.00 0.00 0.01 0.04 0.14 0.28 0.29 0.08 0.03 0.02 0.01 0.01 0.00 0.00 0.00 0.00 0.00 0.00 0.00 0.00 0.00 0.00 0.00 0.00 0.00 0.00 0.00 0.00 0.01 0.01 0.02 0.03 0.04 0.06 0.11 0.15 0.15 0.15 0.15 0.17 0.19 0.23 0.28 0.34 0.39 0.41 0.38
0.00 0.00 0.00 0.00 0.01 0.01 0.06 0.13 0.11 0.06 0.03 0.02 0.01 0.00 0.00 0.00 0.00 0.00 0.00 0.00 0.00 0.00 0.00 0.00 0.00 0.00 0.00 0.00 0.00 0.00 0.00 0.00 0.00 0.01 0.01 0.02 0.02 0.03 0.04 0.06 0.08 0.10 0.12 0.15 0.20 0.27 0.38 0.51 0.59
0.00 0.01 0.01 0.01 0.01 0.01 0.01 0.03 0.02 0.01 0.01 0.00 0.00 0.00 0.00 0.00 0.00 0.00 0.00 0.00 0.00 0.00 0.00 0.00 0.00 0.00 0.00 0.00 0.00 0.00 0.00 0.00 0.00 0.00 0.00 0.00 0.01 0.01 0.01 0.02 0.02 0.03 0.04 0.07 0.11 0.17 0.24 0.36 0.53